When you browse on this site, cookies collect data to enhance your experience and personalize the content and advertising you see.
Visit our Privacy Policy to learn more. By continuing to use the site, you agree to this use of cookies and data.
  • In Hungary
  • List of Countries
  • For 7 days
  • Water Temperature
  • Weather Map
  • News
  • Weather Widgets
  • user-avatar
    Login

    Hourly Weather Subotica

    Today, 22 August, Thursday

    Time Temperature Precipitation Wind Pressure Humidity
    00:00 +22°C° 0 mm 5 mps 756 mmHg 71%
    01:00 +21°C° 0 mm 5 mps 756 mmHg 73%
    02:00 +20°C° 0.1 mm 4 mps 756 mmHg 77%
    03:00 +19°C° 0.1 mm 3 mps 756 mmHg 80%
    04:00 +19°C° 0.1 mm 3 mps 756 mmHg 83%
    05:00 +19°C° 0 mm 3 mps 756 mmHg 79%
    06:00 +20°C° 0 mm 4 mps 757 mmHg 75%
    07:00 +21°C° 0 mm 4 mps 757 mmHg 71%
    08:00 +23°C° 0 mm 4 mps 757 mmHg 64%
    09:00 +26°C° 0 mm 4 mps 757 mmHg 57%
    10:00 +28°C° 0 mm 4 mps 757 mmHg 50%
    11:00 +29°C° 0 mm 4 mps 757 mmHg 46%
    12:00 +32°C° 0 mm 4 mps 756 mmHg 42%
    13:00 +33°C° 0 mm 4 mps 756 mmHg 38%
    14:00 +33°C° 0 mm 4 mps 756 mmHg 39%
    15:00 +33°C° 0 mm 5 mps 755 mmHg 39%
    16:00 +33°C° 0 mm 5 mps 755 mmHg 39%
    17:00 +30°C° 0 mm 5 mps 755 mmHg 45%
    18:00 +28°C° 0 mm 4 mps 755 mmHg 51%
    19:00 +26°C° 0 mm 4 mps 755 mmHg 57%
    20:00 +25°C° 0 mm 4 mps 756 mmHg 61%
    21:00 +24°C° 0 mm 3 mps 756 mmHg 64%
    22:00 +22°C° 0 mm 3 mps 756 mmHg 67%
    23:00 +22°C° 0 mm 3 mps 756 mmHg 70%

    Tomorrow, 23 August, Friday

    Time Temperature Precipitation Wind Pressure Humidity
    00:00 +21°C° 0 mm 3 mps 756 mmHg 72%
    01:00 +20°C° 0 mm 3 mps 756 mmHg 74%
    02:00 +20°C° 0 mm 3 mps 756 mmHg 75%
    03:00 +20°C° 0 mm 3 mps 756 mmHg 76%
    04:00 +19°C° 0 mm 4 mps 756 mmHg 76%
    05:00 +20°C° 0 mm 4 mps 756 mmHg 73%
    06:00 +21°C° 0 mm 4 mps 756 mmHg 69%
    07:00 +22°C° 0 mm 4 mps 756 mmHg 66%
    08:00 +26°C° 0 mm 4 mps 756 mmHg 58%
    09:00 +28°C° 0 mm 4 mps 757 mmHg 51%
    10:00 +32°C° 0 mm 4 mps 757 mmHg 44%
    11:00 +33°C° 0 mm 4 mps 756 mmHg 40%
    12:00 +34°C° 0 mm 3 mps 756 mmHg 37%
    13:00 +35°C° 0 mm 3 mps 755 mmHg 34%
    14:00 +36°C° 0 mm 3 mps 755 mmHg 33%
    15:00 +36°C° 0 mm 3 mps 754 mmHg 32%
    16:00 +36°C° 0 mm 3 mps 754 mmHg 30%
    17:00 +34°C° 0 mm 3 mps 754 mmHg 35%
    18:00 +31°C° 0 mm 3 mps 754 mmHg 40%
    19:00 +29°C° 0 mm 4 mps 754 mmHg 45%
    20:00 +28°C° 0 mm 4 mps 754 mmHg 51%
    21:00 +27°C° 0 mm 4 mps 754 mmHg 57%
    22:00 +26°C° 0 mm 3 mps 754 mmHg 63%
    23:00 +25°C° 0 mm 3 mps 754 mmHg 65%

    Day after tomorrow, 24 August, Saturday

    Time Temperature Precipitation Wind Pressure Humidity
    00:00 +24°C° 0 mm 3 mps 754 mmHg 68%
    01:00 +24°C° 0 mm 3 mps 754 mmHg 70%
    02:00 +24°C° 0 mm 3 mps 754 mmHg 70%
    03:00 +24°C° 0 mm 3 mps 754 mmHg 69%
    04:00 +24°C° 0 mm 3 mps 754 mmHg 69%
    05:00 +25°C° 0 mm 3 mps 754 mmHg 62%
    06:00 +26°C° 0 mm 3 mps 754 mmHg 55%
    07:00 +28°C° 0 mm 3 mps 754 mmHg 48%
    08:00 +30°C° 0 mm 4 mps 754 mmHg 43%
    09:00 +33°C° 0 mm 4 mps 754 mmHg 38%
    10:00 +35°C° 0 mm 4 mps 754 mmHg 34%
    11:00 +36°C° 0 mm 4 mps 754 mmHg 31%
    12:00 +37°C° 0 mm 4 mps 753 mmHg 29%
    13:00 +37°C° 0 mm 3 mps 753 mmHg 26%
    14:00 +36°C° 0.3 mm 4 mps 753 mmHg 30%
    15:00 +35°C° 0.3 mm 4 mps 752 mmHg 35%
    16:00 +33°C° 0.3 mm 4 mps 752 mmHg 39%
    17:00 +32°C° 0.1 mm 4 mps 752 mmHg 43%
    18:00 +29°C° 0.1 mm 3 mps 752 mmHg 47%
    19:00 +28°C° 0.1 mm 3 mps 753 mmHg 52%
    20:00 +27°C° 0.1 mm 3 mps 753 mmHg 56%
    21:00 +26°C° 0.1 mm 3 mps 753 mmHg 59%
    22:00 +25°C° 0.1 mm 3 mps 753 mmHg 63%
    23:00 +25°C° 0.2 mm 3 mps 753 mmHg 64%

    25 August, Sunday

    Time Temperature Precipitation Wind Pressure Humidity
    00:00 +24°C° 0.2 mm 3 mps 753 mmHg 66%
    01:00 +24°C° 0.2 mm 2 mps 752 mmHg 67%
    02:00 +24°C° 0 mm 2 mps 752 mmHg 68%
    03:00 +22°C° 0 mm 3 mps 752 mmHg 68%
    04:00 +22°C° 0 mm 3 mps 752 mmHg 69%
    05:00 +24°C° 0 mm 3 mps 752 mmHg 64%
    06:00 +25°C° 0 mm 3 mps 752 mmHg 59%
    07:00 +27°C° 0 mm 3 mps 753 mmHg 53%
    08:00 +29°C° 0 mm 3 mps 753 mmHg 46%
    09:00 +32°C° 0 mm 4 mps 753 mmHg 38%
    10:00 +35°C° 0 mm 4 mps 753 mmHg 30%
    11:00 +36°C° 0 mm 4 mps 753 mmHg 29%
    12:00 +37°C° 0 mm 4 mps 752 mmHg 27%
    13:00 +38°C° 0 mm 4 mps 752 mmHg 25%
    14:00 +37°C° 0 mm 4 mps 752 mmHg 26%
    15:00 +37°C° 0 mm 4 mps 751 mmHg 26%
    16:00 +36°C° 0 mm 4 mps 751 mmHg 27%
    17:00 +34°C° 0.2 mm 3 mps 751 mmHg 32%
    18:00 +31°C° 0.2 mm 3 mps 751 mmHg 36%
    19:00 +29°C° 0.2 mm 3 mps 751 mmHg 41%
    20:00 +28°C° 0.1 mm 3 mps 752 mmHg 45%
    21:00 +27°C° 0.1 mm 2 mps 752 mmHg 50%
    22:00 +26°C° 0.1 mm 2 mps 753 mmHg 54%
    23:00 +26°C° 0 mm 2 mps 752 mmHg 55%

    26 August, Monday

    Time Temperature Precipitation Wind Pressure Humidity
    00:00 +25°C° 0 mm 2 mps 752 mmHg 56%
    01:00 +25°C° 0 mm 2 mps 752 mmHg 57%
    02:00 +25°C° 0 mm 2 mps 752 mmHg 59%
    03:00 +24°C° 0 mm 2 mps 752 mmHg 62%
    04:00 +24°C° 0 mm 2 mps 753 mmHg 64%
    05:00 +24°C° 0 mm 2 mps 753 mmHg 65%
    06:00 +25°C° 0 mm 2 mps 753 mmHg 66%
    07:00 +25°C° 0 mm 2 mps 754 mmHg 67%
    08:00 +27°C° 0 mm 2 mps 754 mmHg 58%
    09:00 +30°C° 0 mm 2 mps 754 mmHg 49%
    10:00 +32°C° 0 mm 2 mps 754 mmHg 40%
    11:00 +34°C° 0 mm 2 mps 754 mmHg 36%
    12:00 +35°C° 0 mm 2 mps 754 mmHg 31%
    13:00 +36°C° 0 mm 2 mps 753 mmHg 27%
    14:00 +36°C° 0 mm 3 mps 753 mmHg 27%
    15:00 +36°C° 0 mm 3 mps 753 mmHg 27%
    16:00 +36°C° 0 mm 3 mps 753 mmHg 26%
    17:00 +34°C° 0 mm 3 mps 752 mmHg 30%
    18:00 +31°C° 0 mm 3 mps 752 mmHg 33%
    19:00 +30°C° 0 mm 3 mps 752 mmHg 37%
    20:00 +29°C° 0 mm 3 mps 753 mmHg 37%
    21:00 +29°C° 0 mm 2 mps 753 mmHg 38%
    22:00 +29°C° 0 mm 2 mps 754 mmHg 38%
    23:00 +28°C° 0 mm 2 mps 753 mmHg 41%

    27 August, Tuesday

    Time Temperature Precipitation Wind Pressure Humidity
    00:00 +27°C° 0 mm 2 mps 753 mmHg 44%
    01:00 +26°C° 0 mm 2 mps 753 mmHg 47%
    02:00 +25°C° 0 mm 2 mps 753 mmHg 49%
    03:00 +25°C° 0 mm 2 mps 753 mmHg 52%
    04:00 +24°C° 0 mm 1 mps 753 mmHg 55%
    05:00 +25°C° 0 mm 2 mps 753 mmHg 52%
    06:00 +26°C° 0 mm 2 mps 754 mmHg 49%
    07:00 +27°C° 0 mm 2 mps 754 mmHg 46%
    08:00 +29°C° 0 mm 2 mps 754 mmHg 42%
    09:00 +31°C° 0 mm 3 mps 754 mmHg 37%
    10:00 +34°C° 0 mm 3 mps 754 mmHg 33%
    11:00 +35°C° 0 mm 3 mps 754 mmHg 30%
    12:00 +36°C° 0 mm 3 mps 753 mmHg 27%
    13:00 +37°C° 0 mm 3 mps 753 mmHg 24%
    14:00 +37°C° 0 mm 3 mps 752 mmHg 25%
    15:00 +36°C° 0 mm 4 mps 752 mmHg 26%
    16:00 +35°C° 0 mm 4 mps 752 mmHg 28%
    17:00 +34°C° 0 mm 3 mps 752 mmHg 30%
    18:00 +31°C° 0 mm 3 mps 752 mmHg 32%
    19:00 +30°C° 0 mm 3 mps 752 mmHg 34%
    20:00 +29°C° 0 mm 3 mps 752 mmHg 36%
    21:00 +28°C° 0 mm 3 mps 752 mmHg 38%
    22:00 +28°C° 0 mm 3 mps 752 mmHg 40%
    23:00 +27°C° 0 mm 3 mps 752 mmHg 42%
    Show more